Tracking 28790 objects as of 19-Apr-2024
HD Live streaming from Space Station
objects crossing your sky now

MOLNIYA 1-71

Track MOLNIYA 1-71 now!
MOLNIYA 1-71 is classified as:


NORAD ID: 18946
Int'l Code: 1988-017A
Perigee: 400.4 km
Apogee: 39,968.9 km
Inclination: 63.1 °
Period: 717.8 minutes
Semi major axis: 26555 km
RCS: 20.0475 m2 (large)
Launch date: March 11, 1988
Source: Commonwealth of Independent States (former USSR) (CIS)
Launch site: TYURATAM MISSILE AND SPACE COMPLEX (TTMTR)
Your satellite tracking list
Your tracking list is empty




NASA's NSSDC Master Catalog

Two Line Element Set (TLE):
1 18946U 88017A   24109.80571755  .00000253  00000-0  72794-3 0  9998
2 18946  63.0592  25.5804 7450123 257.7676  17.7178  2.00617356264565
Source of the keplerian elements: AFSPC